ONEWEB-0069 (45430 NORAD) Tracking and Keplerian Element Data

This shows tracking and keplerian element data for the satellite.

Feedback or suggestion? Click here.




ElementValue
Catalog45430
NameONEWEB-0069
Epoch Orbit176
Epoch Day193.91667824
Epoch Year2020
RAAN102.3833
Inclination87.5646
Eccentricity0.0026358
Argument of Perigee249.3655
Mean Anonmoly255.9038
Mean Motion14.90207932
Decay Rate-0.00053462
L11 45430U 20020G 20193.91667824 -.00053462 00000-0 -55327-2 0 9994
L22 45430 87.5646 102.3833 0026358 249.3655 255.9038 14.90207932 1765

Live tracking and technical data element details for ONEWEB-0069 (NORAD 45430). ONEWEB-0069 can be tracked NOW for your location showing map with azimuth and elevation plus other details from your city location.

Track the satellite on the map from your city or location and see movement details for azimuth, elevation, latitude, longitude, range, height, and movement on the map or in text.







IsCatalogInMostPopularTable: catalog: 45430, numindb: 29
Update: records affected: 1



GetName: 45430 ONEWEB-0069

Hit Count: updated at: Mon, 13 Jul 2020 03:42:34 GMT